Lapse_Rate
6.9 6.8 6.7 6.7 6.6 7.1 7.7 8.9 9.5 9.2 7.8 7.4 7.3 7.7 7.7 7.9 8.4 8.0 7.6 7.5 7.1 7.6 7.3 7.5 7.2 6.9 6.9 6.8 6.9 6.7 6.6 6.2 5.7 5.3 5.4 5.4 5.5 5.5 5.5 5.4 5.4 5.6 5.7 5.6 5.7 5.7 5.7 5.7 5.6
6.8 6.9 6.7 6.4 6.8 7.7 8.2 8.6 9.6 8.7 8.5 6.9 7.5 7.6 8.2 8.5 6.5 7.0 6.5 7.5 7.5 8.0 7.7 7.4 7.3 7.1 6.8 6.6 6.7 6.7 6.6 6.4 6.2 5.9 5.7 5.9 5.7 5.6 5.5 5.5 5.6 5.8 5.9 5.8 5.8 5.9 5.8 5.8 5.6
6.7 6.8 6.2 6.7 7.1 7.5 8.6 9.6 9.6 9.3 7.3 7.5 7.7 7.2 7.7 7.5 6.2 6.2 7.8 7.8 7.7 7.8 7.8 7.7 7.4 7.2 7.0 6.9 6.5 6.6 6.5 6.2 6.1 6.1 6.0 6.1 6.1 5.9 5.7 5.6 5.7 5.9 5.9 5.9 6.0 6.0 5.9 5.9 5.8
6.6 6.2 6.2 6.8 7.4 7.8 8.1 9.1 9.4 9.2 7.1 7.4 7.4 7.8 7.1 7.0 7.3 7.7 7.7 7.8 7.8 7.9 7.8 7.7 7.6 7.5 7.5 7.1 7.0 6.8 6.6 6.4 6.1 5.9 5.9 6.0 6.1 6.0 5.8 5.8 6.0 6.0 6.0 6.1 6.2 6.1 6.1 6.0 5.9
6.4 6.3 6.8 7.3 7.3 7.8 8.2 8.4 8.6 7.5 7.9 7.6 7.6 7.6 7.3 6.1 7.4 7.6 7.8 7.9 7.8 7.7 7.7 7.8 7.6 7.4 7.3 7.3 7.0 7.0 6.8 6.7 6.5 6.3 6.2 6.0 5.9 6.0 5.8 5.8 5.9 6.0 6.0 6.1 6.2 6.2 6.1 6.1 6.1
5.8 6.5 7.0 7.6 7.9 8.1 8.2 8.0 7.6 7.5 7.6 7.7 7.6 7.3 7.7 6.2 6.4 7.0 7.4 7.5 7.6 7.5 7.6 7.6 7.6 7.5 7.4 7.1 7.2 7.0 6.8 6.8 6.7 6.6 6.5 6.2 6.1 6.0 5.9 5.9 5.9 5.9 6.0 6.1 6.1 6.3 6.4 6.3 6.2
6.1 7.0 7.3 8.0 8.5 9.0 9.2 8.0 6.6 7.1 7.1 7.3 7.6 7.4 7.6 6.7 5.6 7.0 7.0 6.4 7.1 7.3 7.4 7.4 7.5 7.5 7.4 7.3 7.2 7.0 7.0 6.7 6.7 6.7 6.7 6.5 6.4 6.3 6.2 6.0 6.0 6.2 6.2 6.1 6.2 6.2 6.3 6.3 6.3
6.3 6.9 7.5 7.9 8.4 8.8 8.7 7.2 6.7 6.9 7.1 7.1 6.7 7.0 7.5 6.6 6.2 6.8 7.1 6.3 6.3 7.0 7.2 7.5 7.6 7.6 7.6 7.4 7.2 7.2 7.1 6.9 6.9 6.7 6.6 6.6 6.6 6.5 6.4 6.4 6.3 6.1 6.2 6.2 6.3 6.4 6.4 6.4 6.4
6.1 6.7 7.3 8.0 8.6 8.5 8.3 6.9 7.1 6.6 6.4 6.3 6.7 6.8 6.8 6.0 6.0 6.3 6.4 6.5 6.5 6.3 6.2 7.1 7.3 7.4 7.4 7.5 7.4 7.2 7.0 6.9 6.8 6.9 6.8 6.8 6.7 6.7 6.6 6.4 6.4 6.4 6.3 6.2 6.1 6.2 6.4 6.4 6.5
6.2 6.7 7.4 8.2 8.6 8.4 8.1 7.0 7.1 6.4 6.5 6.5 6.3 7.1 6.7 6.1 6.0 6.2 6.4 6.6 6.4 6.2 6.0 5.9 7.2 7.0 6.9 7.0 7.2 7.1 6.9 6.9 6.7 6.6 6.6 6.8 6.8 6.7 6.6 6.5 6.4 6.4 6.4 6.6 6.5 6.4 6.4 6.4 6.5
6.4 6.8 7.8 8.0 7.4 7.1 7.2 7.0 6.8 6.6 6.6 7.0 6.7 6.7 6.8 6.6 6.4 6.3 6.4 6.4 5.8 5.6 5.5 5.8 6.7 6.7 6.6 6.1 7.0 6.8 6.7 6.8 6.7 6.5 6.4 6.4 6.4 6.5 6.5 6.6 6.5 6.5 6.5 6.4 6.4 6.6 6.6 6.5 6.5
6.6 6.8 7.2 7.6 7.1 6.6 6.7 6.8 6.8 6.5 6.5 6.8 6.6 6.4 6.7 6.8 6.3 6.2 6.5 6.2 6.2 5.3 6.1 5.8 6.1 6.5 6.6 6.1 6.4 6.3 6.3 6.4 6.5 6.4 6.4 6.3 6.3 6.4 6.4 6.5 6.5 6.4 6.3 6.3 6.2 6.2 6.3 6.5 6.5
6.6 6.9 7.3 7.0 6.8 6.7 6.7 6.6 6.5 6.4 6.4 6.4 6.4 6.3 6.4 6.7 6.4 6.5 6.4 6.4 6.0 5.5 6.7 6.0 5.8 6.0 6.2 6.3 6.2 6.2 5.4 5.9 6.0 6.1 6.2 6.3 6.2 6.3 6.4 6.2 6.3 6.1 6.4 6.3 6.2 6.1 6.1 6.3 6.4
7.2 7.1 7.0 7.1 6.9 6.8 6.6 6.7 6.6 6.5 6.5 6.2 6.3 6.4 6.4 6.2 6.3 6.5 6.4 6.0 6.1 5.5 5.9 5.7 5.7 6.1 6.3 6.3 6.6 6.7 6.9 6.8 6.7 6.5 6.5 6.5 6.4 6.2 6.1 6.2 6.7 6.3 5.9 6.2 6.2 6.0 6.1 6.2 6.3
7.1 7.0 7.2 7.1 7.1 6.9 6.8 6.7 6.8 6.8 6.7 6.5 6.2 6.2 6.3 6.3 6.5 6.5 6.4 5.8 5.9 5.6 5.5 5.9 6.0 5.9 6.2 6.7 7.1 7.0 6.8 6.4 6.7 6.6 6.7 6.7 6.4 6.1 5.8 5.6 5.8 6.0 6.1 5.9 6.3 6.2 6.2 6.2 6.2
7.2 7.4 7.6 8.0 7.6 7.2 6.8 7.6 7.9 7.2 6.9 6.7 6.6 6.5 6.5 6.5 6.6 6.6 6.1 5.9 5.4 6.0 6.2 6.4 6.7 6.9 7.0 6.9 7.2 7.2 6.8 6.4 6.8 6.7 6.7 6.8 6.7 6.2 6.1 5.9 5.4 5.7 5.6 5.3 5.5 6.1 5.9 6.0 6.3
7.4 7.9 8.2 8.4 8.9 7.7 7.0 8.0 8.1 7.2 7.0 6.9 6.9 6.8 6.8 6.6 6.5 6.4 6.3 5.9 6.0 6.9 6.4 7.2 7.5 7.5 7.9 7.5 7.3 7.2 7.1 7.0 6.6 6.9 7.2 7.0 6.7 5.7 6.1 6.1 6.0 5.9 5.6 5.3 5.4 5.6 5.7 5.7 5.7
8.1 8.3 8.9 9.4 9.4 7.9 7.9 7.9 8.3 7.4 7.4 7.2 7.2 7.2 7.0 7.0 6.6 6.5 6.4 6.9 7.1 7.1 7.2 7.4 8.1 7.7 7.8 7.7 7.4 7.1 7.0 6.9 6.6 6.3 6.3 4.2 6.3 6.4 6.3 6.3 6.0 5.9 5.8 5.7 5.4 5.5 5.5 5.4 5.8
8.9 9.2 9.0 9.6 9.6 9.4 8.4 8.3 8.3 8.8 7.7 7.5 7.5 7.5 7.5 7.3 7.5 6.9 6.4 7.1 8.0 7.1 7.8 7.9 7.7 7.7 7.7 7.9 7.6 7.5 7.9 7.7 7.0 6.6 6.4 6.0 6.0 6.6 6.2 6.5 6.5 6.2 6.2 6.0 5.8 5.2 5.7 5.8 5.7
8.6 9.0 9.5 9.6 9.1 9.3 8.5 8.3 8.4 8.2 8.4 7.8 7.6 7.5 7.6 7.8 7.3 7.2 7.2 7.5 7.6 7.8 7.6 7.6 7.8 7.9 8.0 8.2 7.8 7.6 7.7 7.7 7.6 7.1 7.2 6.6 6.7 6.5 5.7 6.1 6.5 6.3 5.7 5.7 5.8 5.6 5.7 5.7 5.5
8.0 8.7 8.9 9.0 9.5 9.1 8.8 8.9 8.4 8.5 8.1 7.5 7.6 7.6 7.8 7.9 7.6 7.5 7.5 7.7 8.0 7.9 7.9 7.9 8.3 8.3 8.1 7.9 7.7 7.8 7.6 7.3 7.0 7.0 6.6 7.0 6.8 6.6 6.5 6.4 6.4 6.3 6.5 5.4 5.0 5.2 4.6 5.3 5.3
8.2 8.5 9.1 9.4 9.3 9.5 8.9 9.5 8.8 8.5 8.4 7.9 7.6 7.7 7.6 7.7 7.2 7.5 7.9 7.9 8.1 8.2 8.0 8.1 8.3 8.3 8.2 8.2 8.0 7.8 7.4 7.3 7.1 7.0 7.2 7.1 7.6 7.8 7.5 6.6 6.4 5.9 6.2 6.1 5.8 5.1 5.2 5.8 6.0
8.3 8.9 8.6 8.5 8.8 9.5 9.6 9.4 9.6 9.5 9.1 8.3 7.6 7.6 7.4 7.1 6.7 8.0 8.1 8.2 8.3 8.4 8.4 8.3 8.3 8.3 8.4 8.2 7.9 7.8 7.7 7.6 7.4 7.3 7.4 7.3 7.9 7.9 7.9 7.0 6.8 6.7 6.4 6.2 6.2 6.0 6.1 5.7 5.7
8.3 8.4 8.6 8.9 9.2 9.3 9.0 9.4 9.5 9.1 9.3 9.1 7.8 7.6 7.1 7.2 7.8 8.1 8.3 8.3 8.3 8.3 8.4 8.5 8.5 8.4 8.2 8.1 8.1 7.8 7.5 7.4 7.4 7.5 7.5 7.4 7.3 7.8 7.7 7.3 7.1 6.9 6.6 6.5 6.1 6.0 6.2 6.5 6.3
8.3 8.6 9.3 9.4 9.5 9.4 9.4 9.5 9.3 9.0 9.3 8.8 8.1 7.6 7.7 8.1 8.0 8.1 8.2 8.2 8.4 8.4 8.4 8.4 8.3 8.2 8.1 7.8 7.7 7.7 7.6 7.7 7.7 7.4 7.5 7.6 7.4 7.3 7.3 7.3 7.2 6.9 6.7 6.7 6.8 6.8 6.5 6.3 6.3
8.6 8.9 9.5 8.7 9.2 9.8 9.4 9.0 9.2 8.6 8.7 8.0 7.9 7.6 8.1 7.8 7.7 7.6 7.9 7.9 8.0 8.0 7.9 7.8 7.7 7.7 7.6 7.4 7.3 7.2 7.2 7.2 7.4 7.4 7.6 7.5 7.4 7.4 7.2 6.9 6.8 6.7 6.6 6.5 6.3 6.2 6.2 5.8 5.8
9.1 9.1 9.3 9.0 8.4 7.9 9.1 9.1 8.2 8.2 8.3 8.2 7.5 8.2 7.7 7.2 7.7 7.6 7.5 7.3 7.4 7.4 7.3 7.3 7.2 7.2 7.2 7.2 7.1 7.2 7.2 7.2 7.2 7.3 7.3 7.3 7.3 7.2 7.0 6.9 6.9 6.9 6.7 6.4 6.4 6.2 6.0 5.9 5.8
8.7 8.9 8.8 8.3 8.2 8.6 8.8 8.3 8.7 8.2 8.3 8.0 8.0 8.0 7.0 7.1 7.5 7.5 7.2 7.1 7.0 6.9 7.0 7.1 7.1 7.1 7.1 7.1 7.0 7.0 7.0 6.9 7.0 7.1 7.1 7.1 7.0 7.0 7.0 7.0 7.0 6.9 6.7 6.8 6.6 6.4 6.3 6.2 5.9
9.1 8.8 7.9 8.2 9.0 8.4 8.8 8.4 7.5 7.4 7.9 7.9 8.0 7.7 7.1 6.8 6.6 7.0 7.1 7.1 7.0 7.0 7.0 7.1 7.1 7.1 7.1 7.0 7.0 6.9 6.8 6.8 6.9 6.9 6.8 6.7 6.7 6.8 6.8 6.8 6.7 6.6 6.3 6.3 6.3 6.4 6.3 6.1 6.0
8.7 9.0 8.4 8.1 8.2 8.3 7.9 7.7 7.5 7.3 7.8 7.6 7.9 7.3 6.9 6.8 6.5 6.3 7.0 7.1 6.9 7.0 7.0 7.0 7.2 7.1 6.9 6.8 6.7 6.6 6.5 6.6 6.7 6.7 6.6 6.3 6.2 6.1 6.1 6.1 6.1 6.1 6.3 6.2 6.3 6.1 5.8 5.8 5.7
Wind_Speed
17 16 9 9 7 8 19 19 16 3 7 3 4 7 9 11 10 5 6 8 5 19 21 17 15 18 19 19 19 19 19 19 19 17 17 14 13 13 13 13 13 12 12 11 10 9 10 9 9
17 9 8 9 10 15 15 21 12 11 6 3 6 4 10 10 13 5 7 5 11 18 19 20 16 17 18 18 18 18 18 18 19 19 17 16 14 14 13 13 13 12 11 10 9 9 9 9 8
12 12 9 8 16 18 18 17 19 9 4 5 4 2 4 6 12 7 8 6 13 16 18 18 16 18 19 19 19 19 18 18 17 18 17 16 16 15 13 12 11 11 10 9 8 8 8 8 8
7 7 8 13 21 23 25 22 2 3 6 5 2 7 5 9 4 5 6 9 13 15 18 21 16 17 19 20 21 21 19 18 18 17 15 15 14 14 14 12 11 10 9 9 8 7 7 7 6
10 11 13 17 23 24 21 9 6 8 12 6 5 10 4 11 4 2 7 10 13 15 17 18 16 17 17 19 20 20 21 19 19 18 17 15 13 13 13 12 11 10 10 9 8 7 6 5 5
9 12 15 17 23 22 22 8 14 13 13 11 9 11 10 10 3 4 8 11 13 14 15 19 16 16 17 18 18 19 19 19 19 19 18 17 15 13 11 11 10 9 9 9 8 7 6 4 4
17 14 18 21 19 17 14 7 10 16 16 16 14 13 8 8 8 2 6 10 13 14 14 16 20 17 16 17 18 16 17 18 18 19 18 16 16 15 12 9 9 9 9 9 8 7 6 5 4
13 14 22 20 18 18 9 5 8 13 14 6 3 7 13 12 2 6 7 10 13 14 15 16 17 19 17 15 14 17 16 16 16 17 17 17 16 14 14 13 11 8 8 9 10 9 8 7 6
11 14 17 21 20 14 6 4 10 6 9 7 11 16 8 4 5 5 8 10 11 13 14 15 15 15 17 18 15 14 14 15 15 14 13 15 15 15 16 16 18 14 10 9 8 9 9 9 10
16 14 22 18 10 7 10 7 8 8 13 14 14 15 13 7 8 9 10 11 13 14 15 15 14 14 13 15 17 16 16 15 15 15 16 15 15 15 16 16 14 13 13 13 12 11 10 9 13
19 21 15 15 6 10 12 10 6 13 15 14 12 13 15 16 12 11 15 3 11 13 13 14 13 11 13 10 12 12 13 13 13 15 15 16 14 13 14 13 14 13 14 13 15 15 15 15 14
21 19 22 13 7 10 14 14 15 11 15 14 10 12 15 16 12 13 13 17 11 5 13 7 14 10 10 7 8 8 8 11 9 14 14 11 7 7 7 7 13 12 13 12 13 12 13 15 16
23 21 17 16 16 14 14 13 15 14 13 12 13 14 17 16 13 12 12 10 6 15 15 9 10 8 8 5 4 6 7 8 9 11 16 13 8 6 7 6 9 9 13 12 8 9 6 9 11
14 20 21 15 16 17 15 17 17 13 16 14 12 14 15 14 19 14 13 11 11 8 11 8 7 9 7 7 4 3 3 5 7 9 12 17 12 6 6 6 7 7 11 11 8 8 8 9 10
18 13 17 20 17 15 13 18 17 13 9 10 11 13 14 18 19 16 16 16 8 10 12 13 13 13 11 10 9 7 7 8 7 8 12 14 15 10 9 8 7 7 10 8 6 7 7 8 9
18 18 18 20 22 18 11 16 20 14 10 10 11 12 13 13 16 13 13 12 15 10 14 13 12 15 13 10 8 7 4 5 8 11 13 13 12 15 8 7 8 10 8 8 8 9 11 11 12
16 18 23 21 21 12 15 17 15 8 8 11 11 11 14 13 12 16 17 16 15 13 12 15 9 14 13 10 6 5 5 4 6 9 11 12 14 18 11 10 7 9 5 9 8 8 9 9 11
18 17 19 21 17 18 15 20 6 9 12 12 12 12 12 14 17 13 14 14 14 11 4 6 6 7 11 10 9 6 1 1 4 9 9 11 13 14 11 9 9 9 8 9 11 10 7 10 10
19 17 16 15 7 10 19 17 16 11 11 12 11 11 11 13 12 14 12 9 11 4 11 8 5 7 6 9 9 6 6 4 5 9 10 14 8 12 11 11 9 8 9 12 12 10 8 4 5
20 15 13 10 11 9 14 19 11 16 8 11 4 7 12 13 9 5 7 7 4 6 7 7 5 4 3 4 2 4 6 6 3 6 9 13 12 12 12 16 10 9 8 11 11 9 7 8 7
20 18 16 16 14 19 15 17 15 13 11 7 9 9 10 18 13 8 8 7 7 7 5 6 7 7 6 3 3 1 4 5 6 7 8 7 8 12 11 13 11 7 6 2 16 14 19 7 11
19 18 14 12 12 14 20 14 18 20 16 11 7 8 8 8 13 10 11 10 9 8 9 8 8 8 9 7 5 4 5 4 3 3 1 6 4 8 7 10 10 6 4 5 13 18 11 9 10
17 14 17 16 16 17 21 16 16 23 20 15 9 10 12 12 12 12 12 11 10 9 10 10 11 12 11 10 8 1 4 3 3 3 5 6 6 5 7 9 9 6 9 10 10 10 9 10 8
15 15 15 17 13 15 22 14 15 15 16 19 14 9 12 12 12 12 12 11 11 11 10 10 11 11 9 8 8 6 3 3 4 5 6 6 6 7 5 6 7 9 10 10 7 11 12 10 11
16 15 10 12 13 12 21 17 14 8 12 19 16 13 12 12 12 13 13 11 9 9 9 9 9 9 7 5 5 4 4 5 5 6 5 7 8 8 8 8 7 8 9 10 11 11 12 11 11
22 21 12 14 14 17 20 16 13 11 10 12 16 14 13 12 11 10 10 10 10 9 7 7 7 6 6 5 4 4 4 5 5 6 7 7 9 9 10 10 11 12 13 12 11 11 12 13 12
22 20 20 12 16 6 5 8 10 11 11 14 15 14 12 11 11 11 10 7 7 7 7 7 6 5 5 5 5 5 6 7 7 8 8 8 10 9 11 13 13 14 15 14 13 12 13 13 14
17 14 12 7 8 15 12 8 8 14 15 16 16 15 13 11 10 9 8 6 5 5 7 5 5 5 6 5 5 6 8 8 8 9 10 11 11 12 13 13 14 14 15 15 14 14 15 15 13
18 11 8 16 7 5 9 5 7 2 11 16 16 15 14 12 10 8 6 5 4 4 5 5 6 7 7 7 8 8 8 9 8 9 10 11 12 14 15 16 16 17 17 16 14 14 15 17 17
21 19 19 5 10 7 4 7 8 6 5 10 16 14 13 9 7 7 5 4 3 5 6 6 7 8 8 8 8 8 8 9 9 10 12 12 13 14 14 15 16 17 17 14 15 15 15 16 18
Wind_Direction
274 241 239 257 243 232 255 252 262 103 215 90 284 306 338 294 348 41 80 58 152 130 144 153 133 133 138 144 144 141 142 143 144 143 141 141 140 139 134 126 122 124 125 129 134 136 138 141 138
281 237 237 262 235 242 241 241 240 234 85 320 273 283 264 84 49 8 98 63 146 132 151 153 141 137 138 142 142 143 145 147 147 146 145 145 146 144 141 132 130 132 133 137 143 145 144 142 138
255 243 246 225 232 243 253 252 232 167 109 257 273 276 15 16 47 12 53 135 145 142 160 141 143 141 140 142 142 144 147 148 146 145 147 149 148 146 143 137 137 139 142 148 153 155 150 145 145
219 210 251 254 244 228 247 269 186 240 196 219 23 259 118 59 10 17 105 147 138 148 166 132 142 144 144 146 147 147 148 146 145 146 148 149 149 148 146 146 144 147 154 160 161 161 157 157 154
240 249 234 234 243 256 268 272 299 219 244 215 201 278 255 102 71 90 129 150 156 156 133 148 144 145 146 148 147 147 146 147 148 149 150 152 153 153 152 152 153 155 164 166 165 166 167 173 175
220 237 242 238 245 241 245 185 261 253 253 257 272 249 256 93 175 145 162 162 159 155 137 147 143 142 144 147 147 145 146 149 151 150 154 156 156 157 156 158 159 161 170 172 176 174 182 190 195
239 224 244 250 258 252 238 191 222 244 252 250 251 259 239 141 74 200 179 168 160 152 150 157 165 152 142 143 142 143 148 152 154 154 157 160 159 159 159 163 167 168 175 177 182 187 195 206 223
241 257 258 250 256 253 256 147 246 240 248 259 339 236 240 93 147 162 190 177 170 157 155 161 165 170 171 160 147 147 153 156 159 161 162 162 164 167 168 171 176 185 190 189 192 196 204 212 229
233 249 246 242 246 242 209 218 192 301 280 197 243 236 77 58 188 226 189 190 173 164 152 160 160 170 182 167 163 151 161 164 162 164 166 169 193 188 179 196 172 181 193 205 216 220 215 222 233
225 226 240 251 294 275 270 190 258 196 234 233 231 252 268 239 219 193 212 184 177 172 162 160 157 175 184 167 158 186 184 189 192 191 182 203 215 190 207 190 173 185 193 201 209 220 231 235 246
222 243 240 254 275 289 288 265 235 250 248 251 240 232 227 226 212 229 190 208 183 177 169 157 152 181 190 188 158 188 185 195 197 201 191 208 205 200 207 183 192 210 207 223 207 210 222 226 237
234 239 252 272 255 255 251 256 261 240 251 272 266 253 249 209 210 207 255 169 160 338 151 163 143 178 208 197 178 187 194 189 200 201 204 213 220 205 203 219 197 197 212 218 235 216 224 219 229
232 247 237 253 252 241 250 248 252 255 252 244 253 243 231 214 219 223 213 171 35 174 104 155 138 195 186 254 204 226 212 183 205 193 195 223 220 218 213 228 237 220 214 212 224 240 220 222 240
235 234 257 242 239 235 241 247 236 240 234 236 237 238 216 226 224 215 217 145 147 121 115 155 158 170 183 210 229 215 276 262 215 238 199 199 231 233 211 234 217 247 246 243 235 220 239 228 246
249 249 240 244 241 244 233 249 234 240 253 216 202 219 224 217 216 210 198 153 122 159 145 159 168 160 192 204 180 206 219 233 244 228 232 213 210 229 219 223 220 251 241 234 260 283 268 261 264
231 238 250 227 218 223 212 256 205 216 201 215 208 219 213 213 214 192 190 157 166 167 163 178 180 156 178 176 185 200 212 226 226 215 248 233 237 232 235 236 234 230 260 264 236 222 231 237 234
219 238 227 251 190 202 206 243 151 180 211 222 215 212 203 194 196 191 180 177 189 200 198 180 176 163 171 156 167 207 232 219 282 279 217 210 226 229 231 228 235 219 264 271 253 246 251 253 252
217 221 250 224 172 218 198 246 234 220 223 219 228 221 202 211 186 202 208 218 204 194 193 192 169 188 174 158 154 167 113 208 272 286 288 219 188 227 225 235 226 200 206 239 248 260 269 269 257
244 219 233 264 192 202 228 232 239 225 198 229 234 231 226 196 208 184 189 235 231 96 168 172 171 143 210 231 223 201 200 166 226 260 262 292 315 240 227 238 239 237 238 226 237 244 234 261 287
238 244 241 227 251 215 241 243 248 242 207 234 250 260 242 217 160 124 165 226 221 123 129 122 135 142 206 200 269 297 284 246 243 244 238 258 252 236 236 242 241 248 262 266 262 247 254 252 250
226 232 228 239 228 229 240 245 241 244 220 195 218 246 244 230 150 150 149 146 129 115 124 101 79 83 44 339 172 100 301 287 275 271 272 253 240 243 238 248 244 243 108 131 324 258 236 219 233
221 217 250 269 240 236 206 242 210 227 197 196 180 185 185 120 123 127 122 117 108 103 93 86 81 89 73 48 40 341 243 257 336 276 159 306 281 290 265 235 251 214 197 233 211 247 234 229 236
228 220 205 218 251 262 251 219 260 192 190 176 169 152 140 133 130 126 113 111 111 112 104 96 85 77 77 70 54 110 17 53 305 332 13 303 270 271 304 323 320 240 210 226 251 245 237 246 239
222 235 229 232 226 235 242 234 233 187 196 165 147 149 131 128 124 116 115 120 124 125 112 103 90 79 71 71 82 80 72 352 342 350 317 295 316 309 292 298 315 319 316 303 259 245 249 241 240
216 207 203 210 220 229 223 234 242 340 189 141 151 147 140 142 138 140 142 126 116 106 101 104 90 89 80 67 46 36 7 326 297 323 314 334 302 313 325 346 316 301 307 299 301 299 292 267 251
207 204 213 216 212 221 205 217 234 169 136 157 132 143 146 151 136 124 122 130 117 102 86 82 80 73 58 42 9 5 334 322 312 342 331 305 306 303 312 312 303 297 294 291 289 280 277 275 272
196 215 236 253 277 252 244 155 130 169 194 134 145 144 156 146 139 139 134 114 95 93 76 60 45 44 36 18 350 339 337 335 327 318 309 298 311 312 313 314 301 297 292 288 286 277 273 272 268
242 229 223 216 232 245 179 192 175 184 172 166 158 163 156 155 151 143 132 117 103 84 89 56 32 16 1 356 346 346 328 327 326 320 316 313 310 308 307 300 298 297 293 291 285 279 274 269 265
203 202 193 240 251 244 253 206 35 40 224 184 171 165 159 170 159 154 137 120 101 71 49 36 8 356 349 345 342 333 325 322 320 316 315 313 312 307 305 305 305 299 294 290 290 292 290 283 285
212 205 193 204 222 227 187 270 148 253 181 318 170 165 161 167 158 148 136 111 57 34 14 10 359 338 340 334 330 322 318 319 317 315 313 311 307 304 301 303 302 301 302 303 304 303 295 295 292